Rome, GA

7:24 AM EDT on May 29, 2017 (GMT -0400)
Russell

Weather History for KRMG - August, 2013

Change the Weather History Date:

Friday, August 2, 2013

  Actual Average Record
Temperature  
Mean Temperature 77 °F 80 °F  
Max Temperature 88 °F 90 °F 99 °F (2002)
Min Temperature 65 °F 69 °F 59 °F (1997)
Cooling Degree Days 12 15  
Month to date cooling degree days 27 30  
Year to date cooling degree days 921 974  
Since 1 June cooling degree days 778 806  
Growing Degree Days 26 (Base 50)    
Moisture  
Dew Point 68 °F    
Average Humidity 73    
Maximum Humidity 100    
Minimum Humidity 46    
Precipitation  
Precipitation 0.00 in 0.11 in 0.43 in (2000)
Month to date precipitation T 0.21  
Year to date precipitation 26.18 31.50  
Sea Level Pressure  
Sea Level Pressure 29.99 in    
Wind  
Wind Speed 1 mph (NNW)    
Max Wind Speed 6 mph    
Max Gust Speed 44 mph    
Visibility 9 miles    
Events      
T = Trace of Precipitation, MM = Missing Value Source: NWS Daily Summary

Daily Weather History Graph

Daily Weather History Graph

Search for Another Location

Airport or City:

Trip Planner

Search our weather history database for the weather conditions in past years. The results will help you decide how hot, cold, wet, or windy it might be!

Date:

Astronomy

Aug. 02, 2013 Rise Set
Actual Time 6:52 AM EDT 8:40 PM EDT
Civil Twilight 6:24 AM EDT 9:08 PM EDT
Nautical Twilight 5:51 AM EDT 9:41 PM EDT
Astronomical Twilight 5:16 AM EDT 10:16 PM EDT
Moon 3:14 AM EDT (8/2) 5:36 PM EDT (8/2)
Length of Visible Light 14h 43m
Length of Day
13h 48m
Waning Crescent, 16% of the Moon is Illuminated
Aug 2
Waning Crescent
Aug 6
New
Aug 14
First Quarter
Aug 20
Full
Aug 28
Last Quarter

Hourly Weather History & Observations

Time (EDT) Temp. Heat Index Dew Point Humidity Pressure Visibility Wind Dir Wind Speed Gust Speed Precip Events Conditions
12:53 AM 72.0 °F - 70.0 °F 93% 29.96 in 10.0 mi NNW 4.6 mph - N/A   Clear
1:53 AM 71.1 °F - 69.1 °F 93% 29.97 in 9.0 mi Calm Calm - N/A   Clear
2:53 AM 69.1 °F - 69.1 °F 100% 29.94 in 7.0 mi Calm Calm - N/A   Clear
3:53 AM 68.0 °F - 66.9 °F 96% 29.94 in 7.0 mi Calm Calm - N/A   Clear
4:53 AM 68.0 °F - 66.9 °F 96% 29.94 in 8.0 mi Calm Calm - N/A   Clear
5:53 AM 66.9 °F - 66.0 °F 97% 29.96 in 8.0 mi Calm Calm - N/A   Clear
6:53 AM 66.0 °F - 66.0 °F 100% 29.96 in 5.0 mi Calm Calm - N/A   Clear
7:53 AM 66.9 °F - 66.9 °F 100% 29.99 in 6.0 mi Calm Calm - N/A   Clear
8:53 AM 70.0 °F - 68.0 °F 93% 30.01 in 7.0 mi Calm Calm - N/A   Clear
9:53 AM 75.9 °F - 69.1 °F 79% 30.01 in 10.0 mi Calm Calm - N/A   Clear
10:53 AM 79.0 °F - 69.1 °F 72% 30.01 in 10.0 mi Calm Calm - N/A   Clear
11:53 AM 81.0 °F 84.4 °F 70.0 °F 69% 30.02 in 10.0 mi Variable 3.5 mph - N/A   Clear
12:53 PM 84.0 °F 87.8 °F 69.1 °F 61% 30.01 in 10.0 mi NE 5.8 mph - N/A   Clear
1:53 PM 82.9 °F 85.4 °F 66.9 °F 58% 30.01 in 10.0 mi Calm Calm - N/A   Partly Cloudy
2:53 PM 87.1 °F 89.9 °F 66.9 °F 51% 30.00 in 10.0 mi Calm Calm - N/A   Mostly Cloudy
3:53 PM 88.0 °F 89.6 °F 64.9 °F 46% 30.00 in 10.0 mi WNW 4.6 mph - N/A   Clear
4:53 PM 87.1 °F 88.9 °F 64.9 °F 48% 29.98 in 10.0 mi Calm Calm - N/A   Clear
6:53 PM - - - N/A% 30.00 in - North - - N/A   Unknown
7:53 PM - - - N/A% 30.01 in - North - - N/A   Unknown
8:53 PM - - - N/A% 30.02 in - North - - N/A   Unknown
9:53 PM - - - N/A% 30.02 in - North - - N/A   Unknown
10:53 PM - - - N/A% 30.03 in - North - - N/A   Unknown
11:53 PM - - - N/A% 30.04 in - North - - N/A   Unknown